Tracking 29065 objects as of 22-Jul-2024
HD Live streaming from Space Station
objects crossing your sky now

STARLINK-6348

Track STARLINK-6348 now!
10-day predictions
STARLINK-6348 is classified as:


NORAD ID: 57360
Int'l Code: 2023-099AJ
Perigee: 565.3 km
Apogee: 567.1 km
Inclination: 43.0 °
Period: 95.8 minutes
Semi major axis: 6937 km
RCS: Unknown
Launch date: July 16, 2023
Source: United States (US)
Launch site: AIR FORCE EASTERN TEST RANGE (AFETR)
Your satellite tracking list
Your tracking list is empty




NASA's NSSDC Master Catalog

Two Line Element Set (TLE):
1 57360U 23099AJ  24204.50340781  .00001169  00000-0  10163-3 0  9995
2 57360  43.0047 230.1466 0001304 269.3292  90.7401 15.02534963 57476
Source of the keplerian elements: AFSPC